Dewpoint
72 72 72 72 72 73 73 73 72 72 72 71 71 72 72 72 72 72 72 72 71 70 70 70 70 70 69 69 69 69 69 69 69 69 69 69 69 69 69 68 68 68 68 67 67 67 68 65 63 61 61 62 63 63 64 65 65 65 65 65 65 66 68 70 71 72 71 71 70 69 68 68 67 66 66 66 66 66 66 66 67 67 68 67 67 66 66 66 66 66 66 66 65 65 65 65 65 66 66 66 65 65 65
72 72 72 72 72 73 73 72 72 72 72 72 72 72 72 72 72 72 72 72 71 70 70 70 70 69 69 69 69 69 69 69 69 69 69 69 69 69 69 68 68 68 67 67 67 67 67 64 62 61 61 62 62 63 64 65 65 65 65 65 65 66 68 70 72 72 72 71 70 69 68 68 68 67 67 66 66 66 66 66 66 67 67 67 66 66 66 66 66 66 65 65 65 65 65 65 65 65 65 65 65 65 65
72 71 72 72 72 73 73 72 72 72 72 72 72 72 72 72 72 72 72 71 70 70 70 69 69 69 69 69 69 69 69 69 69 69 69 69 69 69 69 68 68 68 67 67 67 67 67 64 62 60 61 61 61 62 63 64 64 64 64 65 65 66 69 70 71 72 72 71 70 69 68 68 68 68 68 67 67 66 66 66 66 66 66 66 66 66 65 66 66 66 65 65 65 65 65 65 65 65 65 65 65 65 65
71 71 72 72 73 73 73 72 72 72 72 72 72 72 72 72 72 72 71 71 70 70 69 69 69 69 69 69 69 69 69 69 69 68 68 68 68 69 69 68 68 68 67 67 68 67 65 62 61 60 60 61 61 62 63 63 64 64 64 65 65 67 69 70 71 71 71 70 70 69 69 69 69 68 68 68 67 67 66 65 65 65 65 65 65 65 66 67 67 67 66 66 66 66 65 65 65 65 65 65 65 65 65
71 71 72 72 73 73 73 72 72 72 72 72 72 72 72 72 72 72 71 70 70 70 69 69 69 69 69 69 69 69 69 69 68 68 68 68 68 69 69 68 68 68 67 67 68 67 64 62 60 59 60 60 61 61 61 62 63 63 64 65 65 67 70 70 71 71 71 70 70 69 69 68 68 68 68 68 68 67 66 65 65 65 66 66 67 67 67 67 67 67 66 66 66 66 66 66 65 65 65 65 65 65 65
71 72 72 73 73 73 73 72 72 72 72 72 72 72 72 72 72 71 71 70 70 69 69 69 69 69 69 69 69 69 69 69 68 68 68 68 68 69 69 68 68 68 67 67 68 67 65 61 59 58 59 59 60 60 61 61 62 62 63 64 65 67 70 70 71 71 71 70 70 69 69 68 68 68 68 68 68 68 67 67 66 66 67 68 69 69 68 67 66 66 66 65 65 65 65 65 66 66 66 65 65 65 65
72 72 73 73 73 73 73 72 72 71 71 72 72 72 72 72 71 71 71 70 70 70 69 69 69 69 69 69 69 69 69 69 69 68 68 69 69 69 69 68 68 67 67 67 68 67 65 60 58 58 58 59 59 60 60 61 61 62 62 64 65 67 69 70 71 71 71 70 70 69 68 68 68 68 68 68 69 69 68 68 68 68 68 69 69 68 67 66 66 65 65 65 65 64 65 65 65 65 65 65 65 65 65
72 72 73 73 73 73 73 72 72 71 72 72 72 72 72 71 71 71 71 70 70 70 70 70 70 70 70 69 69 69 69 69 69 69 69 69 69 69 69 68 68 67 67 68 68 69 68 61 59 58 58 59 59 59 60 60 60 61 62 64 65 67 68 69 71 72 71 70 69 68 68 67 68 68 68 69 69 69 69 68 68 68 68 68 68 67 66 66 65 65 65 65 64 64 64 64 64 65 65 65 64 64 64
73 73 73 73 73 73 73 72 72 72 72 72 72 72 72 71 71 71 71 70 70 70 70 70 70 70 70 70 70 69 69 69 69 69 69 69 69 69 69 68 67 67 67 68 69 70 70 63 59 58 58 59 59 59 59 58 59 61 62 64 65 66 67 68 70 71 72 70 69 68 67 67 67 67 68 68 69 69 68 68 67 67 67 67 66 66 66 65 65 65 65 65 64 64 64 64 64 64 64 64 63 63 64
73 73 73 73 73 73 73 73 72 72 72 72 72 72 72 71 71 71 70 70 70 70 70 70 70 70 71 71 70 70 69 69 69 69 70 70 70 69 68 68 67 67 67 67 68 69 70 62 59 58 58 58 59 59 59 58 59 61 62 64 65 66 67 68 69 70 72 71 70 68 66 66 66 67 67 67 68 68 67 67 66 66 66 66 66 66 66 65 65 65 65 65 65 65 65 64 64 64 63 63 63 63 63
73 73 73 73 73 73 73 73 73 72 72 72 72 72 71 71 71 70 70 70 70 70 70 70 70 71 71 71 71 70 70 70 70 70 70 70 70 69 68 68 67 67 67 67 67 68 68 63 59 58 58 58 59 59 59 59 59 61 62 65 67 68 68 68 68 69 71 71 70 69 67 66 66 66 66 67 67 67 67 66 66 66 66 66 66 66 66 65 65 65 65 65 65 65 65 65 64 64 64 64 63 63 63
72 72 72 73 73 73 73 73 73 73 72 72 72 72 71 71 71 70 70 70 70 70 70 70 70 71 71 71 71 71 70 70 70 70 70 70 69 69 68 67 67 67 67 67 67 67 65 61 59 57 57 58 59 59 59 59 60 61 63 66 68 68 68 68 68 68 70 70 70 69 67 66 66 66 66 67 67 67 66 66 66 66 66 66 66 66 65 65 65 65 65 65 65 65 65 65 65 65 65 65 65 64 64
72 72 72 72 72 72 72 73 73 72 72 72 72 72 71 71 70 70 70 70 70 70 70 70 71 71 71 71 71 71 71 70 70 70 70 70 69 68 68 67 67 67 67 67 67 65 62 59 57 57 57 57 58 59 60 60 61 62 65 67 68 68 68 68 68 68 68 69 69 69 67 67 66 66 67 67 67 67 66 66 66 66 66 66 65 65 65 65 65 65 65 65 65 64 64 65 65 65 65 65 65 65 65
72 72 71 71 71 72 72 72 72 72 72 72 72 71 71 70 70 70 70 70 70 70 70 70 70 70 70 70 71 71 71 71 70 70 70 69 69 68 67 67 67 67 67 66 65 63 61 58 57 57 57 57 58 59 61 61 62 64 66 67 67 67 67 67 67 68 67 68 68 67 67 66 66 66 67 66 66 66 66 66 66 66 65 65 65 65 65 65 65 65 65 65 64 64 63 64 64 65 65 65 65 65 64
71 71 70 71 71 72 72 72 72 71 71 71 71 71 70 70 70 70 70 70 70 70 70 70 70 70 70 70 70 70 70 70 70 70 70 69 68 68 67 67 67 67 67 65 63 61 59 58 57 57 57 57 58 59 61 61 63 65 67 67 66 66 65 66 66 67 67 66 66 66 66 66 66 66 66 66 66 66 66 66 65 65 65 65 65 65 65 65 65 65 65 65 65 64 63 63 64 64 65 65 64 64 63
69 69 69 70 71 71 72 72 71 71 70 71 71 71 70 70 70 70 70 70 70 70 70 70 70 70 70 70 70 70 70 70 70 70 70 69 68 68 67 67 67 66 65 63 61 59 57 57 57 58 58 58 58 59 61 62 64 66 67 67 66 65 65 66 66 66 66 66 66 66 66 66 66 66 66 66 66 66 66 65 65 65 65 65 65 65 65 65 65 65 66 66 65 64 64 63 63 64 64 64 64 63 63
68 68 69 70 71 71 71 71 71 71 70 70 70 70 70 70 70 70 70 70 70 70 70 70 70 70 70 70 69 69 68 69 69 70 69 69 68 67 67 67 66 65 62 61 60 57 57 57 57 57 58 58 59 60 61 62 65 66 67 67 66 66 66 67 67 67 67 67 66 67 67 67 67 67 67 66 66 66 66 65 65 65 65 65 65 65 65 65 65 65 66 66 65 65 64 64 64 64 65 64 63 63 62
68 69 70 70 70 70 71 71 71 71 71 70 70 70 70 70 70 70 70 70 70 70 70 70 70 70 70 69 68 66 65 66 67 68 68 68 68 67 67 66 65 63 61 60 59 57 57 57 57 57 58 58 59 60 61 63 65 67 67 67 67 67 68 68 68 68 69 68 67 67 68 68 68 68 67 66 66 65 65 65 65 65 65 65 65 64 64 65 65 65 66 65 65 64 64 64 64 64 64 64 63 63 62
68 69 70 70 70 70 70 70 70 70 71 70 70 70 70 70 70 70 70 70 70 70 70 70 70 70 69 68 66 64 63 64 65 66 67 67 67 66 65 64 63 61 61 59 58 58 57 57 57 57 57 58 59 61 62 64 66 67 67 67 67 68 69 70 70 69 70 69 68 68 68 68 68 67 67 66 65 65 65 65 65 65 65 65 64 64 64 64 65 65 65 65 64 63 63 63 63 63 63 63 63 63 63
69 70 70 70 70 70 70 70 70 70 70 70 70 70 70 70 70 70 70 70 70 70 70 70 69 69 68 66 65 63 62 62 63 64 65 66 66 65 64 62 61 61 60 59 58 58 57 57 57 57 57 58 59 61 62 65 66 67 67 67 68 69 70 70 70 70 70 69 68 68 68 68 68 67 67 66 65 65 65 65 65 65 65 65 65 64 64 64 64 64 64 64 64 63 63 62 62 62 62 62 62 63 63
70 71 70 70 70 70 70 70 70 70 70 70 70 70 69 69 69 69 69 69 70 70 70 69 68 67 66 65 63 62 61 61 62 62 64 65 65 65 64 62 61 60 60 59 58 58 57 57 57 57 57 57 59 60 62 65 66 67 67 68 68 69 70 70 70 70 70 69 68 68 68 68 68 67 66 65 65 65 64 65 65 65 65 65 65 65 64 64 64 64 64 64 64 63 63 63 62 62 62 62 62 62 63
71 71 70 70 70 70 70 70 70 70 70 70 70 70 68 67 67 68 68 67 68 68 69 68 66 65 65 63 62 61 61 61 61 61 62 63 63 64 63 62 61 60 60 60 59 59 58 58 58 57 57 57 58 60 61 65 66 67 67 68 69 69 70 70 70 70 70 69 68 67 67 67 67 66 66 65 65 65 65 65 65 65 65 65 65 65 65 65 64 64 64 64 64 64 64 64 63 63 63 63 62 62 62
71 70 70 70 70 70 70 70 70 70 70 70 70 70 68 66 66 66 65 65 65 66 66 65 65 64 63 62 61 61 61 61 60 60 60 61 62 62 62 62 61 61 60 60 60 60 59 59 58 58 57 57 58 59 61 65 66 66 67 68 68 68 69 69 69 69 68 68 67 66 66 66 66 66 65 65 65 65 65 65 65 65 65 65 65 65 65 65 65 65 65 65 65 65 64 64 64 64 64 64 63 63 63
70 70 69 69 70 70 70 70 70 70 71 70 70 69 68 66 65 65 65 63 63 63 64 63 63 63 62 61 61 61 61 61 60 60 60 60 61 61 61 62 61 61 61 61 61 61 61 61 60 58 57 57 58 59 61 64 65 66 66 67 67 68 68 67 67 67 66 66 66 66 65 66 65 65 65 65 65 65 65 65 65 65 65 65 65 65 65 65 65 65 65 65 65 65 65 65 65 65 65 65 64 64 63
70 70 68 69 70 70 70 70 70 71 71 70 69 68 68 68 67 66 65 64 62 62 61 61 61 61 62 61 61 61 61 60 60 60 59 59 60 60 61 61 61 61 61 61 61 61 61 61 60 59 58 57 57 59 61 63 65 66 66 66 67 67 67 66 65 65 65 65 65 65 65 65 65 65 65 65 65 65 65 65 65 65 65 65 65 65 65 65 65 65 65 65 65 65 65 65 65 65 65 65 65 65 64
70 70 70 70 70 70 70 70 70 71 70 70 69 68 68 69 68 67 66 64 62 61 61 60 60 61 62 61 61 61 61 60 60 59 59 59 59 59 60 61 61 61 61 61 61 61 61 61 61 60 58 57 57 58 60 63 65 65 66 66 66 67 67 65 65 65 65 65 65 65 65 65 65 65 65 65 65 65 65 65 66 66 66 66 66 66 65 65 65 65 65 65 65 65 65 65 65 65 66 66 65 65 65
70 70 70 70 70 70 69 70 70 70 70 69 68 68 68 68 67 66 66 64 63 62 61 61 61 61 61 61 61 61 60 60 60 59 59 59 59 59 59 60 60 61 61 61 61 61 61 61 61 60 59 58 57 58 59 62 64 65 65 65 66 67 67 66 65 65 65 65 65 65 65 65 65 65 65 66 66 66 66 66 66 66 66 66 66 66 66 66 66 66 66 66 65 65 65 65 65 65 66 66 66 65 65
70 70 71 70 70 70 69 70 70 70 70 69 68 68 68 67 66 66 65 64 63 63 62 61 61 61 61 61 61 60 60 60 60 60 59 59 59 59 59 59 60 60 61 61 61 61 61 61 61 61 60 59 58 58 58 61 63 65 65 65 66 67 68 68 67 66 65 65 65 65 66 65 65 65 65 66 66 66 66 66 66 66 66 66 66 66 66 66 66 66 67 66 66 66 66 66 65 65 66 65 66 66 66
70 70 71 70 70 70 69 70 70 70 70 69 68 67 68 66 65 65 65 64 63 62 62 61 62 62 62 61 61 60 60 60 61 61 61 60 60 60 60 60 60 60 60 60 61 61 61 61 61 61 61 60 59 59 58 60 62 64 65 65 66 67 68 68 68 67 65 65 65 65 65 65 65 65 65 65 66 66 66 66 66 67 67 67 67 67 67 67 67 67 67 67 67 67 66 66 66 66 66 66 66 66 66
70 70 70 70 70 70 70 70 70 70 70 69 68 67 67 66 65 65 65 65 63 62 61 62 62 62 62 62 61 60 60 61 61 61 62 62 61 60 60 60 60 60 60 60 60 60 60 61 61 61 61 61 60 60 59 59 60 62 64 65 65 66 67 68 68 68 66 65 65 65 65 65 65 65 65 65 66 66 67 67 67 67 67 67 67 67 67 67 67 67 68 68 68 67 67 67 67 66 66 66 66 66 66
69 70 70 70 70 69 69 70 70 70 70 70 69 67 66 66 66 65 64 65 64 62 60 61 61 61 62 62 61 60 60 61 61 62 65 65 62 60 60 60 60 60 60 60 60 60 60 60 60 60 61 61 60 60 60 60 60 61 63 64 65 66 67 67 68 69 69 67 66 65 65 65 66 66 66 66 66 66 67 67 67 67 67 67 68 68 67 68 68 68 68 68 68 68 68 68 67 67 67 67 67 67 66
68 69 70 70 69 69 69 69 70 70 70 70 69 67 66 67 66 65 65 65 64 62 60 60 61 61 61 61 61 61 61 61 62 62 62 62 61 61 61 61 60 60 60 60 60 60 60 60 60 59 59 60 59 59 59 59 59 60 61 63 65 65 66 67 67 68 69 69 68 67 67 67 67 67 68 68 68 68 69 68 68 68 68 68 68 68 68 68 68 69 69 69 68 68 68 68 68 68 67 67 67 67 67
68 69 70 70 69 69 69 69 69 70 70 70 69 68 67 67 67 65 65 65 65 64 61 61 61 61 61 61 61 61 61 61 61 62 61 61 61 61 62 62 61 61 61 61 60 60 60 60 59 59 59 58 58 58 58 58 58 58 59 61 63 65 65 66 67 68 68 69 70 69 69 69 69 69 69 69 70 70 70 69 69 69 69 69 68 69 69 69 69 69 69 69 69 69 69 69 68 68 68 68 68 68 68
67 68 69 69 69 69 69 69 69 70 70 70 69 68 68 68 68 67 66 66 67 66 65 63 62 61 61 61 61 61 61 61 61 61 61 61 61 62 65 63 62 61 61 61 60 60 60 59 59 59 58 58 57 57 57 57 58 58 59 60 61 63 65 66 66 67 68 68 69 70 70 70 70 70 70 70 70 70 70 70 70 70 70 69 69 69 69 69 69 69 69 69 69 69 69 69 69 69 69 69 69 69 69
67 67 68 69 69 69 69 68 69 70 70 70 69 69 69 69 68 68 68 67 68 68 69 67 65 64 65 63 62 61 61 61 61 61 61 61 61 62 66 64 63 62 61 60 60 60 60 59 59 58 58 57 57 57 57 57 59 59 60 60 61 62 65 65 66 66 66 67 68 69 69 69 70 70 70 70 70 70 70 69 69 70 70 70 69 69 69 69 69 69 69 69 69 69 69 69 69 69 69 69 69 69 69
66 67 67 68 68 69 69 69 69 69 70 70 69 69 70 69 69 67 66 66 66 67 68 68 67 67 67 65 63 61 62 62 61 61 61 61 61 63 66 66 65 64 61 60 60 59 59 58 58 57 57 57 57 57 58 59 60 60 60 60 61 62 64 65 65 66 66 66 67 67 68 68 69 69 70 70 70 70 70 69 69 70 70 70 70 69 69 69 70 70 70 70 70 70 70 70 69 69 69 69 69 68 68
66 66 66 67 67 68 68 68 68 69 69 70 70 69 69 69 68 67 65 65 66 66 66 66 66 66 65 64 63 63 64 63 63 62 62 62 63 65 67 68 68 66 62 62 61 60 59 57 57 57 57 57 58 59 60 61 61 61 61 61 61 62 63 64 65 65 65 65 66 67 67 67 68 68 69 69 69 70 70 69 70 70 70 70 70 69 69 69 70 70 70 70 70 70 70 70 69 69 69 69 69 68 68
66 66 66 66 66 67 67 67 68 68 69 69 70 69 69 69 68 68 66 66 66 66 65 64 64 65 65 63 63 63 65 64 63 63 62 62 63 64 65 67 67 66 64 64 65 64 61 59 58 58 57 58 60 61 63 64 64 63 63 63 62 62 63 64 65 65 65 64 65 65 67 67 68 68 69 69 69 70 70 70 70 70 70 70 70 69 69 70 70 70 70 70 70 70 70 69 69 69 69 69 69 69 69
65 65 65 65 65 66 66 67 68 68 68 69 69 69 69 69 68 68 67 66 66 65 65 63 63 64 64 63 63 64 65 65 64 63 63 63 64 64 64 65 66 66 66 67 67 67 66 65 63 62 61 61 63 65 65 67 66 65 64 64 64 63 63 64 65 65 66 65 64 64 65 66 66 67 68 68 69 69 69 69 69 70 70 70 70 69 69 70 70 70 70 70 69 69 69 69 69 69 70 69 69 69 69
62 62 63 63 63 64 64 65 67 67 67 68 69 69 69 69 68 68 68 67 66 65 65 64 63 62 62 63 63 64 65 65 65 64 64 65 64 64 64 65 65 66 67 67 67 67 67 68 68 67 67 66 67 68 67 67 67 66 65 65 65 64 64 64 65 65 66 65 64 64 64 65 65 65 66 67 67 68 68 69 69 69 69 69 69 69 69 69 69 69 69 69 68 68 68 68 69 69 69 69 69 69 69
61 61 61 61 61 61 62 63 65 67 67 67 68 68 69 68 68 68 68 67 66 66 66 65 63 62 62 62 62 63 64 65 65 65 65 65 65 65 66 66 66 67 68 67 67 67 67 68 68 68 68 69 68 68 67 66 66 66 66 66 65 65 64 64 64 64 65 64 64 63 61 63 63 64 64 65 65 66 67 67 68 68 69 69 69 69 68 68 68 68 68 67 67 67 67 67 67 68 68 68 68 69 69
60 60 60 60 61 61 61 62 64 65 67 67 67 68 68 68 68 68 68 67 67 66 66 66 65 63 62 62 62 62 64 64 65 65 66 66 66 66 67 67 67 67 67 67 67 67 68 68 68 68 68 68 67 65 65 65 65 65 66 66 65 65 64 64 64 64 63 63 63 62 61 61 62 62 63 63 64 64 65 65 66 67 68 68 68 68 68 68 68 68 68 67 67 67 67 66 67 67 67 68 68 69 69
59 59 60 60 60 61 61 62 63 65 66 66 67 67 67 67 67 67 67 67 67 66 66 66 65 65 64 62 62 62 63 64 65 65 65 65 65 65 65 65 65 65 65 65 66 67 68 68 68 68 68 66 64 63 63 63 63 63 64 64 65 64 64 64 64 63 63 62 62 61 61 61 61 61 61 61 62 62 63 64 65 66 67 68 69 69 69 69 69 69 69 68 68 68 68 67 67 67 67 68 68 69 69
59 59 59 60 60 61 61 62 63 64 65 66 66 66 67 67 67 67 67 67 66 66 66 66 65 65 65 63 62 62 62 63 64 65 65 64 63 63 63 62 62 62 63 63 64 65 67 67 67 67 66 64 62 61 61 61 61 61 61 61 62 62 62 62 62 62 62 62 61 61 61 61 61 61 61 61 61 61 61 62 63 64 65 67 68 69 69 69 69 69 69 69 69 69 69 69 69 68 68 68 69 69 69
59 59 59 59 60 60 61 61 62 63 64 65 66 66 66 66 66 66 66 66 66 66 65 65 65 65 65 64 63 62 62 63 64 64 63 62 62 61 61 60 60 60 61 61 62 64 65 66 66 65 63 61 61 60 60 60 59 59 59 59 59 60 60 61 61 61 61 61 61 61 61 60 60 60 60 60 60 60 60 61 61 62 64 65 66 67 68 68 69 69 69 69 69 69 69 69 69 69 69 69 69 69 69
59 58 58 59 59 59 60 60 61 61 62 64 65 66 65 65 65 65 66 66 66 66 65 65 65 65 65 65 64 63 63 64 63 62 61 61 60 60 59 59 59 59 59 60 61 62 63 63 63 62 61 60 60 59 59 58 58 58 57 57 57 57 57 58 58 58 59 59 59 60 60 60 60 59 59 59 59 59 59 59 60 61 62 64 65 66 66 67 68 68 69 69 69 69 69 69 69 69 69 69 69 68 68
58 58 58 58 58 58 58 59 60 61 61 62 63 65 65 65 65 65 65 65 65 65 65 65 65 65 65 65 65 64 64 63 62 61 60 59 59 58 58 58 58 58 58 59 59 60 61 61 61 60 60 59 59 58 58 58 57 57 56 56 56 56 56 56 56 56 56 57 57 57 58 58 58 58 59 59 59 59 59 59 59 60 61 62 63 64 65 65 66 67 68 68 68 68 68 69 69 69 69 68 68 68 67
58 58 57 57 57 57 57 58 59 60 61 61 61 62 63 65 65 65 65 65 65 65 65 64 64 64 64 64 64 64 63 62 61 60 58 58 57 57 57 56 56 56 56 57 57 57 58 58 59 59 59 58 58 58 57 57 57 56 56 55 55 55 54 54 55 55 55 55 56 56 56 56 56 57 57 58 58 59 59 59 59 59 59 60 61 62 63 64 65 66 67 68 68 68 68 68 68 68 68 68 67 67 66
57 57 57 57 57 57 57 58 59 59 60 60 60 61 62 64 65 65 65 65 65 64 64 64 64 63 63 63 63 63 62 61 61 59 58 57 56 56 56 56 55 55 55 55 55 55 55 56 56 57 57 57 57 57 57 57 56 56 56 55 54 54 53 53 53 54 54 54 54 54 55 55 55 56 56 57 57 58 58 58 59 59 59 59 60 60 61 62 63 65 66 67 67 67 67 67 67 67 67 67 67 66 65
56 56 56 56 56 56 56 57 57 58 59 59 60 61 62 64 65 65 65 64 64 63 63 63 63 63 63 62 62 61 61 61 60 59 58 56 56 55 54 54 54 54 54 54 54 54 53 53 53 54 55 56 56 56 56 56 56 55 55 55 54 53 53 53 53 53 53 53 53 53 53 53 54 54 55 56 56 57 57 58 58 58 58 59 59 59 59 61 62 64 65 66 67 67 66 66 66 66 66 66 66 65 65
56 56 56 56 56 56 56 56 56 57 57 58 59 60 62 63 63 64 64 63 63 63 62 62 63 63 63 62 61 61 61 61 60 59 57 56 56 55 54 54 54 53 53 54 54 53 53 52 52 52 52 53 54 55 55 55 55 54 54 54 53 53 53 52 52 52 52 52 52 52 52 52 53 53 53 54 55 56 56 57 57 57 58 59 58 58 58 58 60 62 64 65 66 66 66 65 65 65 65 65 65 65 64
55 56 56 56 55 55 55 56 56 56 56 57 57 58 60 61 62 62 63 63 63 62 62 61 61 61 61 62 62 62 62 62 61 61 58 57 56 57 56 55 54 53 52 52 53 53 53 52 51 51 50 51 52 53 54 54 54 53 53 53 52 52 52 52 52 52 51 51 51 51 52 52 52 52 52 53 53 54 56 56 57 57 58 57 57 56 56 56 57 58 61 63 64 65 65 65 65 65 65 65 65 64 64
55 55 55 55 55 54 55 55 55 56 56 56 56 56 57 58 60 61 62 62 62 62 62 61 61 60 61 61 61 61 62 62 62 61 59 58 57 57 57 56 55 54 53 52 52 51 51 50 50 50 50 50 50 51 52 52 53 52 52 52 52 52 52 52 52 52 51 51 50 50 51 51 51 51 51 52 52 53 54 54 55 56 56 55 55 55 56 55 55 56 56 58 61 64 65 65 65 65 65 65 64 64 63
54 54 55 55 55 54 54 54 55 55 56 56 55 55 55 56 56 58 60 61 62 61 61 61 61 60 59 60 60 60 60 61 61 60 60 59 58 56 55 53 53 53 54 54 52 49 49 48 48 48 49 50 50 50 50 51 52 52 52 51 51 52 52 52 52 51 51 50 50 50 50 50 50 50 50 50 51 51 51 51 52 52 53 53 54 54 55 55 55 55 56 56 57 59 62 65 65 65 65 65 64 63 63
54 54 54 55 55 55 54 54 55 55 56 56 55 55 55 54 55 55 56 59 61 62 62 61 61 60 59 59 59 59 59 59 60 60 60 61 60 58 54 52 51 51 52 53 52 50 49 48 47 47 48 49 49 49 49 49 50 51 52 51 51 51 51 51 51 50 50 50 50 50 49 49 48 47 47 47 48 49 50 50 51 51 52 52 52 53 54 54 55 56 56 56 56 56 58 62 64 64 64 64 64 63 62
54 54 54 54 54 55 55 55 55 55 56 56 55 55 54 54 54 55 55 56 58 60 61 61 60 60 59 58 58 58 58 58 59 59 58 58 58 58 57 54 52 52 52 52 52 51 50 49 48 47 47 48 47 47 47 47 48 49 50 50 50 50 51 50 50 49 49 49 50 50 50 49 47 46 46 46 47 47 48 49 50 51 51 51 52 52 53 54 55 56 57 57 57 56 57 60 62 62 63 63 63 63 62
53 53 54 54 54 54 55 55 55 55 55 55 55 55 55 55 55 55 55 55 56 57 59 60 60 60 60 59 58 58 58 57 57 57 57 56 56 56 57 57 58 57 56 54 52 51 51 52 50 48 47 47 47 47 47 47 47 47 48 49 49 49 50 49 49 49 49 49 49 49 49 48 47 46 45 45 45 45 46 47 48 50 50 51 51 52 52 53 54 55 56 57 58 58 57 59 61 61 61 62 62 61 61
53 53 53 54 54 54 54 54 55 55 55 55 55 55 55 55 55 55 55 55 55 56 57 59 60 60 60 60 59 58 57 57 57 56 56 56 56 56 56 56 56 56 57 56 55 52 52 52 51 48 47 47 47 47 47 47 47 47 47 48 48 48 48 48 48 48 48 48 48 48 48 47 46 45 45 44 44 44 45 45 47 48 49 50 50 51 51 52 53 54 55 56 57 57 57 59 60 60 61 61 61 60 60
52 52 53 53 54 54 54 54 54 54 54 54 55 55 55 55 55 55 55 55 55 56 56 57 58 59 59 60 59 58 57 56 56 56 56 56 56 56 56 55 55 55 56 57 56 55 54 52 51 50 48 47 47 47 47 46 46 46 46 47 47 47 47 47 47 47 47 47 47 46 46 45 45 45 44 44 44 43 44 44 45 47 48 49 50 50 51 52 52 53 54 55 56 57 58 59 59 59 59 59 59 59 58
51 52 52 53 53 54 53 53 53 53 53 54 54 54 54 54 54 54 55 55 55 56 56 56 56 56 57 59 59 58 57 57 57 57 57 56 56 56 56 55 55 56 56 57 57 56 56 55 54 52 51 49 47 46 46 46 46 46 46 45 45 45 45 45 44 44 44 43 43 44 44 44 44 43 43 43 43 43 43 43 44 45 47 47 48 49 51 51 52 52 53 54 55 56 57 57 58 58 58 58 58 57 57
50 51 52 52 52 53 53 53 52 52 52 53 53 53 53 53 53 54 54 55 55 55 56 56 56 56 56 57 58 59 59 58 57 57 58 57 56 55 55 55 55 56 56 56 57 56 56 56 56 56 55 53 50 47 46 45 45 45 45 43 42 42 41 41 41 41 41 41 41 42 42 43 43 42 42 42 42 43 43 43 43 44 45 46 47 48 49 50 51 52 52 52 54 55 56 56 56 56 57 56 56 56 56